Time,TemperatureF,DewpointF,PressureIn,WindDirection,WindDirectionDegrees,WindSpeedMPH,WindSpeedGustMPH,Humidity,HourlyPrecipIn,Conditions,Clouds,dailyrainin,SoftwareType,DateUTC
2013-10-29 00:19:00,40.0,36.0,30.33,ENE,62,2.0,-999.0,87,-99.99,,,-99.99,,2013-10-29 05:19:00,
2013-10-29 00:45:00,40.0,36.0,30.33,ENE,74,2.0,-999.0,86,-99.99,,,-99.99,,2013-10-29 05:45:00,
2013-10-29 00:52:00,39.0,35.0,30.33,ENE,64,1.0,-999.0,86,-99.99,,,-99.99,,2013-10-29 05:52:00,
2013-10-29 01:16:00,39.0,35.0,30.32,East,79,1.0,-999.0,86,-99.99,,,-99.99,,2013-10-29 06:16:00,
2013-10-29 01:26:00,39.0,35.0,30.32,ENE,78,1.0,-999.0,87,-99.99,,,-99.99,,2013-10-29 06:26:00,
2013-10-29 01:43:00,38.0,34.0,30.32,ENE,78,2.0,-999.0,87,-99.99,,,-99.99,,2013-10-29 06:43:00,
2013-10-29 01:52:00,38.0,34.0,30.32,ENE,76,1.0,-999.0,87,-99.99,,,-99.99,,2013-10-29 06:52:00,
2013-10-29 02:11:00,38.0,34.0,30.32,ENE,68,1.0,-999.0,87,-99.99,,,-99.99,,2013-10-29 07:11:00,
2013-10-29 02:24:00,38.0,35.0,30.31,ENE,77,1.0,-999.0,88,-99.99,,,-99.99,,2013-10-29 07:24:00,
2013-10-29 02:44:00,37.0,34.0,30.31,East,87,0.0,-999.0,88,-99.99,,,-99.99,,2013-10-29 07:44:00,
2013-10-29 02:55:00,37.0,34.0,30.31,ENE,65,0.0,-999.0,89,-99.99,,,-99.99,,2013-10-29 07:55:00,
2013-10-29 03:13:00,37.0,34.0,30.32,ENE,70,1.0,-999.0,89,-99.99,,,-99.99,,2013-10-29 08:13:00,
2013-10-29 03:24:00,37.0,34.0,30.31,ENE,69,0.0,-999.0,89,-99.99,,,-99.99,,2013-10-29 08:24:00,
2013-10-29 03:42:00,36.0,33.0,30.32,ENE,69,0.0,-999.0,90,-99.99,,,-99.99,,2013-10-29 08:42:00,
2013-10-29 03:52:00,36.0,33.0,30.32,ENE,69,0.0,-999.0,90,-99.99,,,-99.99,,2013-10-29 08:52:00,
2013-10-29 04:11:00,36.0,34.0,30.32,ENE,69,0.0,-999.0,91,-99.99,,,-99.99,,2013-10-29 09:11:00,
2013-10-29 04:21:00,36.0,34.0,30.31,ENE,75,0.0,-999.0,91,-99.99,,,-99.99,,2013-10-29 09:21:00,
2013-10-29 04:42:00,36.0,34.0,30.31,ENE,74,0.0,-999.0,92,-99.99,,,-99.99,,2013-10-29 09:42:00,
2013-10-29 04:53:00,36.0,34.0,30.31,ENE,74,1.0,-999.0,92,-99.99,,,-99.99,,2013-10-29 09:53:00,
2013-10-29 05:13:00,36.0,34.0,30.31,East,79,1.0,-999.0,92,-99.99,,,-99.99,,2013-10-29 10:13:00,
2013-10-29 05:23:00,36.0,34.0,30.31,East,80,2.0,-999.0,92,-99.99,,,-99.99,,2013-10-29 10:23:00,
2013-10-29 05:42:00,36.0,34.0,30.31,East,80,3.0,-999.0,93,-99.99,,,-99.99,,2013-10-29 10:42:00,
2013-10-29 05:53:00,36.0,34.0,30.31,ENE,68,2.0,-999.0,93,-99.99,,,-99.99,,2013-10-29 10:53:00,
2013-10-29 06:12:00,36.0,34.0,30.32,ENE,69,0.0,-999.0,93,-99.99,,,-99.99,,2013-10-29 11:12:00,
2013-10-29 06:22:00,37.0,35.0,30.31,ENE,69,2.0,-999.0,93,-99.99,,,-99.99,,2013-10-29 11:22:00,
2013-10-29 06:42:00,37.0,35.0,30.31,ENE,69,2.0,-999.0,94,-99.99,,,-99.99,,2013-10-29 11:42:00,
2013-10-29 06:52:00,36.0,34.0,30.31,ENE,69,1.0,-999.0,94,-99.99,,,-99.99,,2013-10-29 11:52:00,
2013-10-29 07:12:00,36.0,34.0,30.31,ENE,69,0.0,-999.0,94,-99.99,,,-99.99,,2013-10-29 12:12:00,
2013-10-29 07:21:00,36.0,34.0,30.31,ENE,69,0.0,-999.0,94,-99.99,,,-99.99,,2013-10-29 12:21:00,
2013-10-29 07:52:00,36.0,35.0,30.30,ENE,76,0.0,-999.0,95,-99.99,,,-99.99,,2013-10-29 12:52:00,
2013-10-29 08:11:00,36.0,35.0,30.30,ENE,71,3.0,-999.0,95,-99.99,,,-99.99,,2013-10-29 13:11:00,
2013-10-29 08:21:00,37.0,36.0,30.30,ENE,69,2.0,-999.0,95,-99.99,,,-99.99,,2013-10-29 13:21:00,
2013-10-29 08:42:00,37.0,36.0,30.30,ENE,76,3.0,-999.0,95,-99.99,,,-99.99,,2013-10-29 13:42:00,
2013-10-29 08:52:00,37.0,36.0,30.31,ENE,77,2.0,-999.0,95,-99.99,,,-99.99,,2013-10-29 13:52:00,
2013-10-29 09:11:00,38.0,37.0,30.30,ENE,75,1.0,-999.0,96,-99.99,,,-99.99,,2013-10-29 14:11:00,
2013-10-29 09:21:00,38.0,37.0,30.29,ENE,71,3.0,-999.0,96,-99.99,,,-99.99,,2013-10-29 14:21:00,
2013-10-29 09:42:00,39.0,38.0,30.30,ENE,78,2.0,-999.0,95,-99.99,,,-99.99,,2013-10-29 14:42:00,
2013-10-29 09:52:00,39.0,38.0,30.29,East,96,3.0,-999.0,95,-99.99,,,-99.99,,2013-10-29 14:52:00,
2013-10-29 10:11:00,39.0,38.0,30.29,ENE,68,2.0,-999.0,95,-99.99,,,-99.99,,2013-10-29 15:11:00,
2013-10-29 10:21:00,40.0,38.0,30.30,East,97,1.0,-999.0,94,-99.99,,,-99.99,,2013-10-29 15:21:00,
2013-10-29 10:44:00,40.0,38.0,30.29,ENE,57,0.0,-999.0,93,-99.99,,,-99.99,,2013-10-29 15:44:00,
2013-10-29 10:54:00,41.0,39.0,30.29,East,79,1.0,-999.0,92,-99.99,,,-99.99,,2013-10-29 15:54:00,
2013-10-29 11:12:00,41.0,39.0,30.28,ENE,57,0.0,-999.0,91,-99.99,,,-99.99,,2013-10-29 16:12:00,
2013-10-29 11:23:00,42.0,39.0,30.29,ENE,74,0.0,-999.0,90,-99.99,,,-99.99,,2013-10-29 16:23:00,
2013-10-29 11:43:00,43.0,40.0,30.28,East,92,0.0,-999.0,88,-99.99,,,-99.99,,2013-10-29 16:43:00,
2013-10-29 11:53:00,43.0,39.0,30.26,East,86,1.0,-999.0,87,-99.99,,,-99.99,,2013-10-29 16:53:00,
2013-10-29 12:12:00,44.0,40.0,30.27,East,92,1.0,-999.0,86,-99.99,,,-99.99,,2013-10-29 17:12:00,
2013-10-29 12:22:00,45.0,41.0,30.26,ENE,59,1.0,-999.0,85,-99.99,,,-99.99,,2013-10-29 17:22:00,
2013-10-29 12:42:00,47.0,41.0,30.26,East,84,1.0,-999.0,80,-99.99,,,-99.99,,2013-10-29 17:42:00,
2013-10-29 12:52:00,48.0,41.0,30.24,East,93,2.0,-999.0,77,-99.99,,,-99.99,,2013-10-29 17:52:00,
2013-10-29 13:02:00,48.0,41.0,30.24,East,93,2.0,-999.0,77,-99.99,,,-99.99,,2013-10-29 18:02:00,
2013-10-29 13:12:00,48.0,41.0,30.24,East,93,2.0,-999.0,77,-99.99,,,-99.99,,2013-10-29 18:12:00,
2013-10-29 13:21:00,50.0,42.0,30.23,NE,55,1.0,-999.0,75,-99.99,,,-99.99,,2013-10-29 18:21:00,
2013-10-29 13:42:00,51.0,43.0,30.22,ENE,66,0.0,-999.0,73,-99.99,,,-99.99,,2013-10-29 18:42:00,
2013-10-29 13:52:00,51.0,42.0,30.21,NE,36,2.0,-999.0,71,-99.99,,,-99.99,,2013-10-29 18:52:00,
2013-10-29 14:02:00,51.0,42.0,30.21,NE,36,2.0,-999.0,71,-99.99,,,-99.99,,2013-10-29 19:02:00,
2013-10-29 14:11:00,51.0,42.0,30.21,NE,36,2.0,-999.0,71,-99.99,,,-99.99,,2013-10-29 19:11:00,
2013-10-29 14:22:00,54.0,43.0,30.18,ESE,109,1.0,-999.0,66,-99.99,,,-99.99,,2013-10-29 19:22:00,
2013-10-29 14:42:00,54.0,43.0,30.18,ENE,68,1.0,-999.0,66,-99.99,,,-99.99,,2013-10-29 19:42:00,
2013-10-29 14:53:00,53.0,42.0,30.17,ENE,78,0.0,-999.0,66,-99.99,,,-99.99,,2013-10-29 19:53:00,
2013-10-29 15:02:00,53.0,42.0,30.17,ENE,78,0.0,-999.0,66,-99.99,,,-99.99,,2013-10-29 20:02:00,
2013-10-29 15:12:00,53.0,42.0,30.17,ENE,78,0.0,-999.0,66,-99.99,,,-99.99,,2013-10-29 20:12:00,
2013-10-29 15:22:00,54.0,43.0,30.16,ENE,74,1.0,-999.0,65,-99.99,,,-99.99,,2013-10-29 20:22:00,
2013-10-29 15:43:00,54.0,43.0,30.16,ENE,73,1.0,-999.0,65,-99.99,,,-99.99,,2013-10-29 20:43:00,
2013-10-29 15:52:00,54.0,43.0,30.15,ENE,78,1.0,-999.0,65,-99.99,,,-99.99,,2013-10-29 20:52:00,
2013-10-29 16:01:00,54.0,43.0,30.15,ENE,78,1.0,-999.0,65,-99.99,,,-99.99,,2013-10-29 21:01:00,
2013-10-29 16:12:00,54.0,43.0,30.15,ENE,78,1.0,-999.0,65,-99.99,,,-99.99,,2013-10-29 21:12:00,
2013-10-29 16:22:00,54.0,43.0,30.15,East,97,0.0,-999.0,66,-99.99,,,-99.99,,2013-10-29 21:22:00,
2013-10-29 16:54:00,54.0,43.0,30.15,East,92,0.0,-999.0,67,-99.99,,,-99.99,,2013-10-29 21:54:00,
2013-10-29 17:03:00,54.0,43.0,30.15,East,92,0.0,-999.0,67,-99.99,,,-99.99,,2013-10-29 22:03:00,
2013-10-29 17:13:00,54.0,43.0,30.15,East,92,0.0,-999.0,67,-99.99,,,-99.99,,2013-10-29 22:13:00,
2013-10-29 17:23:00,54.0,44.0,30.16,East,92,0.0,-999.0,70,-99.99,,,-99.99,,2013-10-29 22:23:00,
2013-10-29 17:43:00,53.0,45.0,30.15,East,92,0.0,-999.0,74,-99.99,,,-99.99,,2013-10-29 22:43:00,
2013-10-29 17:53:00,52.0,45.0,30.15,East,92,0.0,-999.0,77,-99.99,,,-99.99,,2013-10-29 22:53:00,
2013-10-29 18:12:00,52.0,45.0,30.15,East,92,0.0,-999.0,77,-99.99,,,-99.99,,2013-10-29 23:12:00,
2013-10-29 18:22:00,51.0,44.0,30.14,East,92,0.0,-999.0,77,-99.99,,,-99.99,,2013-10-29 23:22:00,
2013-10-29 18:43:00,51.0,44.0,30.14,East,92,0.0,-999.0,78,-99.99,,,-99.99,,2013-10-29 23:43:00,
2013-10-29 18:53:00,51.0,44.0,30.14,East,92,0.0,-999.0,78,-99.99,,,-99.99,,2013-10-29 23:53:00,
2013-10-29 19:11:00,51.0,44.0,30.14,East,92,0.0,-999.0,76,-99.99,,,-99.99,,2013-10-30 00:11:00,
2013-10-29 19:21:00,51.0,44.0,30.14,East,92,0.0,-999.0,76,-99.99,,,-99.99,,2013-10-30 00:21:00,
2013-10-29 19:42:00,51.0,44.0,30.14,East,92,0.0,-999.0,76,-99.99,,,-99.99,,2013-10-30 00:42:00,
2013-10-29 19:52:00,51.0,43.0,30.14,East,92,0.0,-999.0,75,-99.99,,,-99.99,,2013-10-30 00:52:00,
2013-10-29 20:01:00,51.0,43.0,30.14,East,92,0.0,-999.0,75,-99.99,,,-99.99,,2013-10-30 01:01:00,
2013-10-29 20:12:00,51.0,43.0,30.14,East,92,0.0,-999.0,75,-99.99,,,-99.99,,2013-10-30 01:12:00,
2013-10-29 20:22:00,51.0,43.0,30.14,East,86,0.0,-999.0,75,-99.99,,,-99.99,,2013-10-30 01:22:00,
2013-10-29 20:42:00,51.0,44.0,30.14,East,86,0.0,-999.0,76,-99.99,,,-99.99,,2013-10-30 01:42:00,
2013-10-29 20:52:00,51.0,44.0,30.14,East,86,0.0,-999.0,77,-99.99,,,-99.99,,2013-10-30 01:52:00,
2013-10-29 21:02:00,51.0,44.0,30.14,East,86,0.0,-999.0,77,-99.99,,,-99.99,,2013-10-30 02:02:00,
2013-10-29 21:11:00,51.0,44.0,30.14,East,86,0.0,-999.0,77,-99.99,,,-99.99,,2013-10-30 02:11:00,
2013-10-29 21:22:00,51.0,45.0,30.14,East,86,0.0,-999.0,80,-99.99,,,-99.99,,2013-10-30 02:22:00,
2013-10-29 21:42:00,51.0,46.0,30.14,East,86,0.0,-999.0,82,-99.99,,,-99.99,,2013-10-30 02:42:00,
2013-10-29 21:52:00,50.0,45.0,30.14,East,86,0.0,-999.0,84,-99.99,,,-99.99,,2013-10-30 02:52:00,
2013-10-29 22:02:00,50.0,45.0,30.14,East,86,0.0,-999.0,84,-99.99,,,-99.99,,2013-10-30 03:02:00,
2013-10-29 22:11:00,50.0,45.0,30.14,East,86,0.0,-999.0,84,-99.99,,,-99.99,,2013-10-30 03:11:00,
2013-10-29 22:21:00,50.0,46.0,30.13,East,86,0.0,-999.0,87,-99.99,,,-99.99,,2013-10-30 03:21:00,
2013-10-29 22:44:00,50.0,47.0,30.13,East,86,0.0,-999.0,88,-99.99,,,-99.99,,2013-10-30 03:44:00,
2013-10-29 22:54:00,50.0,47.0,30.13,East,86,0.0,-999.0,89,-99.99,,,-99.99,,2013-10-30 03:54:00,
2013-10-29 23:03:00,50.0,47.0,30.13,East,86,0.0,-999.0,89,-99.99,,,-99.99,,2013-10-30 04:03:00,
2013-10-29 23:13:00,50.0,47.0,30.13,East,86,0.0,-999.0,89,-99.99,,,-99.99,,2013-10-30 04:13:00,
2013-10-29 23:44:00,50.0,47.0,30.12,East,86,0.0,-999.0,89,-99.99,,,-99.99,,2013-10-30 04:44:00,
2013-10-29 23:53:00,50.0,47.0,30.11,East,86,0.0,-999.0,90,-99.99,,,-99.99,,2013-10-30 04:53:00,